Find Starlink 6048

NORAD ID: 56459 Int'l Des: 2023-064 Owner: SPXS Country: US Constellation: starlink operational
LEOCIRCULAR

当前视图

正在加载3D地球...

About Starlink 6048

Starlink 6048 (NORAD 56459) is a starlink constellation satellite (v1.5) launched May 10, 2023 by SPXS of US. It operates in LEO, CIRCULAR orbit with a mass of 305.00 kg.

即将过境

Passes for default location (London). Set your location on the main map for personalized predictions.

高度历史

Loading altitude history...

两行轨道根数

1 56459U 23064M 26263.45746762 .00000144 00000-0 19874-4 0 9996
2 56459 70.0010 13.2455 0003278 268.2624 91.8160 14.98331133184418
Epoch: Sep 20, 2026 • Age: 11 hours

当前状态

高度 581.7 km
远地点 / 近地点 N/A
速度 7.57 km/s
星下点 51.33°N, 62.45°E
发射日期 May 10, 2023
运行时间 3.3 years
类型 internet

技术详情

分类 Payload
质量 305.00 kg
干质量 290.00 kg
长度 0.20 m
跨度 9.00 m
形状 ? Box + pan
制造商 SPXS
平台类型 Starlink
阶段状态 In Orbit
所有者/国家 SPXS/US

Most Searched